Zurück zum Katalog

COSMOS 1261 DEB

AktivHEO
NORAD 35507·DEBRIS·🇷🇺 Russia

Gestartet Mar 31, 1981 von Plesetsk Cosmodrome

Loading…

Nächste Überflüge (nächste 24 Stunden)

TLE

AktuellSource: Space-Track

Epoche: Sep 13, 2026, 08:07 UTC

1 35507U 81031N   26256.33830455  .00000987  00000-0  24776-2 0  9997
2 35507  61.2398 282.3700 7434717  46.0866 355.1019  2.01947062100204

Verfolge COSMOS 1261 DEB in Echtzeit mit AllMySat

Download on the App Store